カタログに戻る

SL-12 R/B

AUX MOTOR

運用中HEO
NORAD 19535·ROCKET BODY·🇷🇺 Russia

打ち上げ Sep 16, 1988 から Baikonur Cosmodrome

Loading…

次のパス (今後24時間)

TLE

最新Source: Space-Track

元期: Sep 14, 2026, 08:55 UTC

1 19535U 88085F   26257.37210835  .00026535  00000-0  24921-2 0  9994
2 19535  64.7807 195.1548 5662620   6.5279 358.4702  4.59312715602853

AllMySatでSL-12 R/Bをリアルタイム追跡

Download on the App Store